OBJECT F, 64053

Orbit data source: Space-Track

You're viewing an Uncataloged Satellite

Recently launched and/or uncataloged satellites may have evolving metadata. Metadata may include but not limited to: Owner, Maufacturer, Bus, Motor, and Mission.

OBJECT F, 64053 is a Chinese satellite in SSO that was launched on Sat, 17 May 2025 UTC via a ZHUQUE-2E launch vehicle from the Jiuquan Satellite Launch Center, China (JSC). Unknown objects in Earth's orbit typically refer to objects detected orbiting the Earth but have not yet been identified or cataloged. These objects could be anything from previously untracked satellites, spent rocket stages, debris from satellite collisions, or even natural meteoroids temporarily captured by Earth's gravity.

Loading next visibility...
Identifier
64053, 2025-103F
Orbit
SSO
Last TLE update
6 hours ago
Origin
Manufacturer
Changsha Tianyi
Mission
Operational Commercial Technology
Bus & Motor
TY, Unknown motor
Mass
~50 kg wet, ~50 kg dry
Launch date (UTC)
2025-05-17 (2 months ago)
Launch vehicle
ZHUQUE-2E
Launch site
Jiuquan Satellite Launch Center, China (JSC)
Object type
Unknown
Shape & HBR
Box + 2 Pan, 0.5 m
Radar Cross Section
0.255 m², Medium (>0.1 m² and < 1m²)

Expand to show TLE details & history

TLE from 6 hours ago
0 OBJECT F
1 64053U 25103F   25211.56848219  .00004011  00000-0  21394-3 0  9991
2 64053  97.4173 285.4859 0003128 179.7136 180.4099 15.15717021 11272
Epoch: 2025-07-30T13:38Z
TLE epoch observation values (Epoch: 2025-07-30T13:38:36.861Z)
Latitude
-0.00002°
Longitude
132.38648°
Altitude
524.045 km
Speed
7.6 km/s
True Right ascension
19h 01m 56s
True Declination
0° 00' 00"
Sunlit
Object was in full shadow at epoch
Visualization orbit readout
Latitude
-74.99699°
Longitude
-76.26166°
Altitude
545.625 km
Speed
7.588 km/s
Apparent Right ascension
22h 30m 49s
Apparent Declination
-68° 15' 48"
Sunlit
Object is in daylight
Visualization observer readout
Local Sidereal Time
09:05:51
Azimuth
195.285° SSW
Elevation
-59.405°
Doppler factor
1
Orbital elements
Apogee altitude
517.931 km
Perigee altitude
513.618 km
Semi-major axis
6,893.912 km
Eccentricity
0.00031
Inclination
97.4173°
RAAN
285.4859°
Arg. of periapsis
179.7136°
True anomaly
180.40964°
Mean anomaly
180.4099°
Eccentric anomaly
180.40977°
Mean motion
3.79179 °/min
Orbital period
94.94 mins
BSTAR
0.00021394
Loading maneuver chart data...
Loading SW <> Apogee altitude chart data...
Loading historical data...
Loading historical data...
Loading historical data...
Loading historical data...
Loading historical data...
Loading historical data...
Loading historical data...
|